EHI
4 2 0 0 0 0 0 0 0 0 0 0 0 0 0 0 0 0 0 0 0 0 0 0 0 0 0 0 0 0 0 0 0 0 0 0 0 0 0 0 0 0 0
9 5 1 0 0 0 0 0 0 0 0 0 0 0 0 0 0 0 0 0 0 0 0 0 0 0 0 0 0 0 0 0 0 0 0 0 0 0 0 0 0 0 0
18 12 6 2 0 0 0 0 0 0 0 0 0 0 0 0 0 0 0 0 0 0 0 0 0 0 0 0 0 0 0 0 0 0 0 0 0 0 0 0 0 0 0
24 19 11 5 1 0 0 0 0 0 0 0 0 0 0 0 0 0 0 0 0 0 0 0 0 0 0 0 0 0 0 0 0 0 0 0 0 0 0 0 0 0 0
30 26 21 14 8 3 1 0 0 0 0 0 0 0 0 0 0 0 0 0 0 0 0 0 0 0 0 0 0 0 0 0 0 0 0 0 0 0 0 0 0 0 0
45 46 41 32 22 11 3 0 0 0 0 0 0 0 0 0 0 0 0 0 0 0 0 0 0 0 0 0 0 0 0 0 0 0 0 0 0 0 0 0 0 0 0
63 67 62 49 35 20 8 3 1 0 0 0 0 0 0 0 0 0 0 0 0 0 0 0 0 0 0 0 0 0 0 0 0 0 0 0 0 0 0 0 0 0 0
61 64 61 50 39 27 17 10 5 2 1 1 0 0 0 0 0 0 0 0 0 0 0 0 0 0 0 0 0 0 0 0 0 0 0 0 0 0 0 0 0 0 0
34 36 36 33 30 25 20 17 10 5 3 2 1 1 1 1 0 0 0 0 0 0 0 0 0 0 0 0 0 0 0 0 0 0 0 0 0 0 0 0 0 0 0
10 11 11 12 15 16 15 15 13 9 6 2 1 2 2 1 0 0 0 0 0 0 0 0 0 0 0 0 0 0 0 0 0 0 0 0 0 0 0 0 0 0 0
1 2 1 2 4 7 8 9 9 9 7 3 1 2 2 1 0 0 0 0 0 0 0 0 0 0 0 0 0 0 0 0 0 0 0 0 0 0 0 0 0 0 0
0 0 0 0 1 2 3 3 3 4 5 3 1 2 3 1 0 0 0 0 0 0 0 0 0 0 0 0 0 0 0 0 0 0 0 0 0 0 0 0 0 0 0
0 0 0 0 0 0 1 1 0 1 1 1 2 2 3 2 0 0 0 0 0 0 0 0 0 0 0 0 0 0 0 0 0 0 0 0 0 0 0 0 0 0 0
0 0 0 0 0 0 0 0 0 0 0 0 1 2 1 1 0 0 0 0 0 0 0 0 0 0 0 0 0 0 0 0 0 0 0 0 0 0 0 0 0 0 0
0 0 0 0 0 0 0 0 0 0 0 0 0 0 0 0 0 0 0 0 0 0 0 0 0 0 0 0 0 0 0 0 0 0 0 0 0 0 0 0 0 0 0
0 0 0 0 0 0 0 0 0 0 0 0 0 0 0 0 0 0 0 0 0 0 0 0 0 0 0 0 0 0 0 0 0 0 0 0 0 0 0 0 0 0 0
0 0 0 0 0 0 0 0 0 0 0 0 0 0 0 0 0 0 0 0 0 0 0 0 0 0 0 0 0 0 0 0 0 0 0 0 0 0 0 0 0 0 0
0 0 0 0 0 0 0 0 0 0 0 0 0 0 0 0 0 0 0 0 0 0 0 0 0 0 0 0 0 0 0 0 0 0 0 0 0 0 0 0 0 0 0
0 0 0 0 0 0 0 0 0 0 0 0 0 0 0 0 0 0 0 0 0 0 0 0 0 0 0 0 0 0 0 0 0 0 0 0 0 0 0 0 0 0 0
0 0 0 0 0 0 0 0 0 0 0 0 0 0 0 0 0 0 0 0 0 0 0 0 0 0 0 0 0 0 0 0 0 0 0 0 0 0 0 0 0 0 0
0 0 0 0 0 0 0 0 0 0 0 0 0 0 0 0 0 0 0 0 0 0 0 0 0 0 0 0 0 0 0 0 0 0 0 0 0 0 0 0 0 0 0
0 0 0 0 0 0 0 0 0 0 0 0 0 0 0 0 0 0 0 0 0 0 0 0 0 0 0 0 0 0 0 0 0 0 0 0 0 0 0 0 0 0 0
0 0 0 0 0 0 0 0 0 0 0 0 0 0 0 0 0 0 0 0 0 0 0 0 0 0 0 0 0 0 0 0 0 0 0 0 0 0 0 0 0 0 0
0 0 0 0 0 0 0 0 0 0 0 0 0 0 0 0 0 0 0 0 0 0 0 0 0 0 0 0 0 0 0 0 0 0 0 0 0 0 0 0 0 0 0
0 0 0 0 0 0 0 0 0 0 0 0 0 0 0 0 0 0 0 0 0 0 0 0 0 0 0 0 0 0 0 0 0 0 0 0 0 0 0 0 0 0 0
0 0 0 0 0 0 0 0 0 0 0 0 0 0 0 0 0 0 0 0 0 0 0 0 0 0 0 0 0 0 0 0 0 0 0 0 0 0 0 0 0 0 0
Wind_Speed
8 7 7 6 6 6 5 5 5 5 6 8 8 9 9 9 9 8 7 7 6 5 5 7 8 8 7 7 7 8 8 7 6 4 4 6 10 9 7 6 5 5 6
8 8 7 6 6 6 6 6 6 6 6 7 8 9 9 9 9 9 8 8 6 5 5 7 8 7 9 8 7 8 8 8 7 7 5 6 10 10 9 8 6 4 4
10 9 8 8 7 7 6 6 7 7 7 8 7 8 9 9 9 9 8 8 7 7 6 7 8 8 9 8 9 8 8 7 7 6 6 5 6 7 9 8 7 5 5
9 9 8 8 7 7 7 7 8 8 8 8 8 8 8 9 10 10 9 9 9 8 8 9 9 9 10 9 8 10 9 9 8 8 7 7 6 7 8 8 8 7 6
9 8 8 7 7 7 7 7 8 8 8 9 8 8 8 7 8 9 9 10 10 10 10 10 9 10 10 8 7 8 9 8 8 8 8 8 8 8 9 9 8 7 7
8 7 6 6 6 7 7 8 8 8 8 8 9 9 8 6 5 6 7 8 9 10 9 9 9 11 12 13 13 11 9 10 10 10 9 10 12 11 9 9 9 8 6
6 5 6 7 7 7 7 7 7 8 9 9 10 9 9 7 7 8 9 8 8 9 10 9 8 8 10 10 12 15 14 15 13 10 11 12 11 11 12 12 11 9 6
2 3 5 5 6 7 7 8 8 8 7 8 8 8 8 7 8 7 7 10 9 9 10 10 10 10 9 10 9 10 12 13 14 13 12 10 8 8 11 11 10 8 6
2 1 2 4 6 7 8 8 8 8 7 8 8 8 8 7 8 7 8 8 8 9 8 8 9 10 8 8 9 9 9 9 9 11 8 3 2 6 8 7 9 9 7
5 3 2 1 4 6 7 7 7 7 8 8 8 8 8 7 8 8 10 7 7 6 5 6 6 7 4 8 9 8 9 8 6 7 8 7 8 10 14 11 9 9 7
6 5 4 2 1 3 4 5 6 7 7 8 9 8 8 6 7 8 8 6 5 4 4 3 2 4 5 7 7 5 4 3 5 6 6 7 7 7 10 10 8 7 7
6 6 6 5 3 2 1 3 4 6 7 8 8 8 6 6 5 6 6 7 5 4 3 2 2 5 5 6 4 2 3 3 3 3 4 5 6 6 7 8 7 7 6
6 6 6 6 5 4 2 2 2 4 5 6 7 7 6 5 5 5 6 6 6 4 1 4 4 6 6 5 4 5 5 3 3 4 4 5 5 6 6 5 6 5 6
5 6 5 6 6 6 4 2 1 2 3 4 5 5 5 5 4 4 4 5 6 6 4 6 6 5 3 4 6 5 4 3 2 3 3 3 3 4 5 5 4 4 4
4 4 4 5 5 5 5 5 4 4 3 1 1 2 3 3 2 2 3 2 3 3 5 5 5 5 5 4 4 4 3 4 3 3 2 3 3 4 4 5 5 6 6
4 4 3 3 3 3 4 5 10 9 9 9 8 5 5 5 3 1 1 2 4 4 3 4 4 3 3 3 3 3 3 3 3 3 3 3 3 4 4 4 4 6 7
3 2 2 2 2 2 2 3 4 6 9 10 9 8 7 5 5 5 5 6 5 3 2 2 2 2 2 2 2 3 3 3 3 3 3 4 4 4 4 5 5 6 7
2 2 1 1 1 1 1 1 2 3 4 4 7 8 8 8 7 7 6 5 3 1 1 1 1 1 1 2 2 3 3 3 3 4 4 4 4 5 5 5 6 7 7
1 1 1 1 1 2 2 2 2 3 4 4 3 4 5 5 6 4 1 1 2 2 1 1 0 0 1 2 2 2 3 3 3 4 4 4 5 5 5 5 6 7 7
2 3 2 1 1 2 2 3 3 3 4 3 3 3 2 1 2 2 2 2 2 1 1 0 1 1 2 2 2 3 3 4 4 4 4 4 4 5 6 6 6 6 6
3 4 3 1 1 2 2 3 3 3 3 4 4 3 3 2 2 2 2 1 1 0 0 1 1 2 2 3 3 3 4 4 4 4 4 4 4 5 5 5 5 5 5
4 3 3 2 1 1 2 3 3 4 4 4 3 3 0 1 2 2 2 1 1 1 1 1 2 2 2 3 3 4 4 5 5 5 5 5 4 5 5 5 5 4 4
4 4 3 3 3 3 3 3 3 3 3 4 3 2 2 2 2 2 2 2 1 1 1 2 2 2 2 2 3 3 4 5 4 5 5 5 5 5 4 5 6 5 6
5 5 4 4 3 3 3 3 4 4 3 4 3 3 2 2 2 2 2 2 2 2 2 2 2 3 4 3 2 2 3 4 5 5 6 6 5 4 4 5 5 6 5
5 5 4 4 4 4 4 4 4 4 4 3 3 3 2 2 3 3 3 3 3 3 4 4 3 4 6 6 5 5 7 8 7 5 5 4 5 5 4 4 4 4 4
6 5 4 4 4 4 4 4 4 4 4 3 3 3 3 3 3 3 4 4 4 4 5 5 6 7 8 6 7 9 9 8 8 6 4 3 4 3 3 3 4 4 4
Wind_Direction
189 187 192 195 197 198 205 200 199 195 188 185 185 180 176 172 168 163 160 163 175 193 213 225 225 223 225 224 225 230 236 235 234 206 151 181 181 192 172 195 176 195 138
190 191 197 192 193 204 203 200 200 196 199 200 193 188 185 182 175 172 170 170 176 197 216 229 235 229 231 227 221 225 227 230 228 211 166 199 194 191 182 188 190 195 164
188 192 194 197 202 209 209 203 205 203 202 202 201 199 194 189 186 189 187 182 188 201 217 232 239 234 234 230 224 228 229 228 228 217 172 172 197 194 190 191 197 191 187
191 196 201 204 204 210 212 209 211 209 208 208 207 207 205 200 199 199 198 198 201 209 219 229 236 233 235 234 230 233 229 223 218 216 180 173 178 192 194 193 195 193 199
196 203 206 207 203 210 212 213 214 215 218 213 211 213 207 208 212 210 207 208 212 215 221 228 237 243 245 242 239 235 229 222 214 214 201 185 181 177 197 195 197 186 194
201 208 206 213 204 208 213 217 212 212 218 217 218 217 211 216 187 198 227 219 223 226 230 233 235 239 242 235 236 238 233 225 219 216 213 208 203 197 188 188 190 184 194
205 206 208 212 209 209 210 210 207 210 216 218 218 216 216 206 175 195 218 242 238 238 239 239 238 240 240 244 228 222 226 232 239 238 231 228 220 199 187 189 192 196 203
213 220 216 220 216 211 209 206 207 211 206 214 217 213 213 199 184 206 211 238 245 244 243 245 242 242 237 238 235 224 224 221 224 234 246 249 240 201 190 195 194 198 187
46 334 253 228 223 216 212 209 207 207 205 209 208 208 211 198 186 208 222 239 244 247 246 247 248 246 234 219 229 226 227 228 222 225 248 267 157 169 178 188 182 183 191
39 21 3 271 237 228 223 217 209 209 210 209 208 210 211 212 180 200 227 240 242 243 240 241 240 253 240 202 224 223 225 223 210 203 209 193 184 180 182 197 191 198 204
38 37 34 18 296 250 229 217 210 208 210 211 208 206 208 210 183 196 222 247 248 251 240 233 217 189 209 200 223 227 224 222 209 205 196 191 189 187 194 212 212 216 220
40 37 33 28 22 31 210 203 204 201 201 202 200 193 195 192 202 194 213 238 270 255 244 222 150 155 169 172 191 156 151 193 204 197 189 185 184 183 191 203 213 217 239
35 35 31 35 40 39 53 128 173 189 192 192 193 185 182 185 186 201 221 224 228 249 149 86 118 150 162 167 158 165 181 193 195 200 202 196 190 183 176 182 197 210 230
27 28 33 33 47 53 50 64 131 168 184 190 192 185 176 179 188 198 211 202 195 199 162 130 130 142 161 130 153 178 196 188 202 209 209 192 173 173 171 165 172 175 194
21 32 46 52 54 60 58 37 31 55 35 23 157 158 164 159 102 348 277 240 213 179 157 159 166 168 171 173 180 179 178 180 197 196 197 192 188 185 176 168 168 174 193
24 32 39 59 70 80 93 81 49 55 60 57 49 48 74 63 62 71 105 97 105 141 188 183 179 179 180 182 186 188 193 202 203 202 206 209 210 207 194 178 179 190 204
34 33 37 46 74 93 109 123 117 90 75 67 63 61 65 72 75 84 101 115 131 169 208 173 173 175 182 185 193 207 210 207 208 217 222 221 220 221 216 208 205 211 218
48 70 33 64 68 91 96 93 98 122 118 92 71 66 69 74 79 91 111 126 121 143 75 98 139 173 205 212 210 215 219 218 220 224 227 232 231 229 227 226 221 223 225
63 72 67 56 65 88 99 109 105 102 108 112 109 90 79 89 87 68 37 87 108 114 98 74 20 258 245 243 236 238 239 239 239 240 238 236 237 236 236 238 240 237 235
117 74 20 25 105 112 124 124 115 115 113 110 100 89 101 118 97 84 65 61 77 88 97 174 233 249 248 247 247 250 254 251 248 248 249 246 244 244 245 243 241 239 234
162 142 168 230 51 71 90 101 110 115 111 102 90 72 11 56 82 83 80 72 51 46 342 299 291 277 269 263 257 256 262 268 266 266 267 260 256 252 252 251 248 241 236
177 170 175 160 135 113 108 116 119 123 122 115 114 120 74 49 75 72 63 46 19 350 338 313 298 301 295 287 281 271 266 268 270 265 262 259 255 253 251 246 242 235 225
180 175 178 170 156 144 157 131 124 119 120 120 119 121 124 90 75 64 63 52 37 32 359 331 324 318 307 296 290 290 290 291 290 287 277 262 251 246 244 245 243 237 227
177 179 173 166 162 160 152 141 131 131 131 131 130 124 114 101 89 72 60 49 43 37 19 3 355 349 346 339 322 306 303 304 299 285 275 266 258 249 238 236 238 237 236
173 170 166 164 162 163 156 152 150 145 143 140 133 130 118 96 81 64 53 46 42 42 36 29 19 8 2 1 356 348 342 326 307 295 282 267 258 249 240 239 237 234 225
170 166 160 159 162 164 167 167 159 149 145 142 141 128 110 92 78 64 50 42 40 41 36 31 23 17 8 0 356 348 342 332 320 300 276 268 264 259 246 239 237 231 218